This is the latest recevied weather packets stored in our database for station/object G6UYG-13. If no packets are shown the sender has not sent any weather packets the latest 10 day(s).
| Time | Temp. | Humidity | Pressure | Rain* | Wind** | Luminosity | Snow |
|---|---|---|---|---|---|---|---|
| 1777825724 | 16.11° C | 74% | 1007.4 hPa | 0 mm | - | 522 W/m² | - |
| 1777825374 | 16.11° C | 74% | 1007.4 hPa | 0 mm | - | 406 W/m² | - |
| 1777825304 | 16.11° C | 74% | 1007.4 hPa | 0 mm | - | 406 W/m² | - |
| 1777825192 | 16.11° C | 74% | 1007.4 hPa | 0 mm | - | 512 W/m² | - |
| 1777824884 | 16.11° C | 74% | 1007.4 hPa | 0 mm | - | 512 W/m² | - |
| 1777824851 | 16.11° C | 76% | 1007.4 hPa | 0 mm | - | 564 W/m² | - |
| 1777824464 | 16.11° C | 76% | 1007.4 hPa | 0 mm | - | 564 W/m² | - |
| 1777824146 | 15.56° C | 76% | 1007.4 hPa | 0 mm | - | 599 W/m² | - |
| 1777824044 | 15.56° C | 76% | 1007.4 hPa | 0 mm | - | 599 W/m² | - |
| 1777823624 | 15.56° C | 75% | 1007.4 hPa | 0 mm | - | 357 W/m² | - |
| 1777823204 | 15.56° C | 74% | 1007.3 hPa | 0 mm | - | 345 W/m² | - |
| 1777822784 | 16.11° C | 72% | 1007.4 hPa | 0 mm | - | 248 W/m² | - |
| 1777822364 | 16.67° C | 70% | 1007.3 hPa | 0 mm | - | 341 W/m² | - |
| 1777821944 | 16.67° C | 73% | 1007.3 hPa | 0 mm | - | 612 W/m² | - |
| 1777821619 | 16.11° C | 72% | 1007.3 hPa | 0 mm | - | 622 W/m² | - |
| 1777821524 | 16.11° C | 72% | 1007.3 hPa | 0 mm | - | 622 W/m² | - |
| 1777821104 | 16.11° C | 73% | 1007.4 hPa | 0 mm | - | 612 W/m² | - |
| 1777820684 | 16.11° C | 74% | 1007.4 hPa | 0 mm | - | 515 W/m² | - |
| 1777820264 | 16.11° C | 75% | 1007.4 hPa | 0 mm | - | 684 W/m² | - |
| 1777819844 | 16.11° C | 75% | 1007.4 hPa | 0 mm | - | 664 W/m² | - |
| 1777819662 | 15.56° C | 76% | 1007.4 hPa | 0 mm | - | 740 W/m² | - |
| 1777819424 | 15.56° C | 76% | 1007.4 hPa | 0 mm | - | 740 W/m² | - |
| 1777819098 | 15.56° C | 77% | 1007.5 hPa | 0 mm | - | 663 W/m² | - |
| 1777819004 | 15.56° C | 77% | 1007.5 hPa | 0 mm | - | 663 W/m² | - |
| 1777818584 | 15° C | 79% | 1007.5 hPa | 0 mm | - | 742 W/m² | - |
* Rain latest hour (hover to see other rain measurements)
** Current wind speed in m/s (hover to see current wind gust speed)